TimeCST,TemperatureF,Dew PointF,Humidity,Sea Level PressureIn,VisibilityMPH,Wind Direction,Wind SpeedMPH,Gust SpeedMPH,PrecipitationIn,Events,Conditions,WindDirDegrees,DateUTC
12:15 AM,31.3,29.7,94,30.50,10.0,Calm,Calm,-,N/A,,Clear,0,2013-11-29 06:15:00
12:35 AM,30.9,29.1,93,30.50,10.0,Calm,Calm,-,N/A,,Clear,0,2013-11-29 06:35:00
12:55 AM,31.1,29.3,93,30.49,10.0,Calm,Calm,-,N/A,,Clear,0,2013-11-29 06:55:00
1:15 AM,30.2,28.2,92,30.49,10.0,Calm,Calm,-,N/A,,Clear,0,2013-11-29 07:15:00
1:35 AM,30.7,29.7,96,30.49,10.0,Calm,Calm,-,N/A,,Clear,0,2013-11-29 07:35:00
1:55 AM,29.8,28.6,95,30.49,10.0,Calm,Calm,-,N/A,,Clear,0,2013-11-29 07:55:00
2:15 AM,30.9,29.3,94,30.48,10.0,Calm,Calm,-,N/A,,Clear,0,2013-11-29 08:15:00
2:35 AM,30.7,28.9,93,30.48,10.0,Calm,Calm,-,N/A,,Clear,0,2013-11-29 08:35:00
2:55 AM,30.9,28.8,92,30.48,10.0,Calm,Calm,-,N/A,,Clear,0,2013-11-29 08:55:00
3:15 AM,30.4,28.2,92,30.49,10.0,Calm,Calm,-,N/A,,Clear,0,2013-11-29 09:15:00
3:35 AM,30.7,29.1,94,30.49,10.0,Calm,Calm,-,N/A,,Clear,0,2013-11-29 09:35:00
3:55 AM,30.7,28.8,92,30.48,10.0,Calm,Calm,-,N/A,,Clear,0,2013-11-29 09:55:00
4:15 AM,30.6,28.6,92,30.49,10.0,Calm,Calm,-,N/A,,Clear,0,2013-11-29 10:15:00
4:35 AM,31.1,29.1,92,30.49,10.0,Calm,Calm,-,N/A,,Clear,0,2013-11-29 10:35:00
4:55 AM,30.6,29.3,95,30.49,10.0,Calm,Calm,-,N/A,,Clear,0,2013-11-29 10:55:00
5:15 AM,31.1,29.8,95,30.50,10.0,Calm,Calm,-,N/A,,Clear,0,2013-11-29 11:15:00
5:35 AM,30.9,28.8,92,30.51,10.0,Calm,Calm,-,N/A,,Clear,0,2013-11-29 11:35:00
5:55 AM,30.2,28.4,93,30.51,10.0,Calm,Calm,-,N/A,,Clear,0,2013-11-29 11:55:00
6:15 AM,30.2,28.8,94,30.52,10.0,Calm,Calm,-,N/A,,Clear,0,2013-11-29 12:15:00
6:35 AM,30.0,28.2,93,30.52,10.0,ENE,3.5,-,N/A,,Clear,70,2013-11-29 12:35:00
6:55 AM,29.3,27.7,94,30.52,10.0,ENE,3.5,-,N/A,,Clear,60,2013-11-29 12:55:00
7:15 AM,30.9,27.3,86,30.53,10.0,Calm,Calm,-,N/A,,Clear,0,2013-11-29 13:15:00
7:35 AM,31.6,28.0,87,30.53,10.0,Calm,Calm,-,N/A,,Clear,0,2013-11-29 13:35:00
7:55 AM,33.1,29.8,88,30.53,10.0,Calm,Calm,-,N/A,,Clear,0,2013-11-29 13:55:00
8:15 AM,36.0,30.2,80,30.53,10.0,ENE,3.5,-,N/A,,Clear,60,2013-11-29 14:15:00
8:35 AM,38.3,31.1,75,30.53,10.0,ENE,6.9,-,N/A,,Clear,70,2013-11-29 14:35:00
8:55 AM,40.8,31.6,70,30.53,10.0,ENE,9.2,-,N/A,,Clear,70,2013-11-29 14:55:00
9:15 AM,42.4,30.9,64,30.53,10.0,ENE,9.2,-,N/A,,Clear,60,2013-11-29 15:15:00
9:35 AM,45.0,31.1,58,30.53,10.0,East,6.9,-,N/A,,Clear,80,2013-11-29 15:35:00
9:55 AM,47.1,31.1,54,30.53,10.0,East,9.2,-,N/A,,Clear,80,2013-11-29 15:55:00
10:15 AM,48.0,29.5,49,30.53,10.0,ENE,10.4,-,N/A,,Clear,70,2013-11-29 16:15:00
10:35 AM,49.5,30.0,47,30.52,10.0,ENE,8.1,-,N/A,,Clear,60,2013-11-29 16:35:00
10:55 AM,51.1,30.4,45,30.52,10.0,ESE,8.1,-,N/A,,Clear,110,2013-11-29 16:55:00
11:15 AM,51.4,28.9,42,30.51,10.0,ENE,5.8,-,N/A,,Clear,70,2013-11-29 17:15:00
11:35 AM,52.3,28.4,40,30.51,10.0,ENE,5.8,-,N/A,,Clear,60,2013-11-29 17:35:00
11:55 AM,52.9,28.6,39,30.50,10.0,NE,4.6,-,N/A,,Clear,40,2013-11-29 17:55:00
12:15 PM,54.5,29.8,39,30.48,10.0,NNE,5.8,-,N/A,,Clear,20,2013-11-29 18:15:00
12:35 PM,54.3,30.9,41,30.48,10.0,Calm,Calm,-,N/A,,Clear,0,2013-11-29 18:35:00
12:55 PM,55.4,30.9,39,30.46,10.0,North,5.8,-,N/A,,Clear,10,2013-11-29 18:55:00
1:15 PM,55.4,27.7,35,30.46,10.0,NNW,3.5,-,N/A,,Clear,340,2013-11-29 19:15:00
1:35 PM,56.5,28.0,34,30.46,10.0,Calm,Calm,-,N/A,,Clear,0,2013-11-29 19:35:00
1:55 PM,56.1,29.1,36,30.45,10.0,NE,5.8,-,N/A,,Clear,50,2013-11-29 19:55:00
2:15 PM,56.5,24.8,30,30.44,10.0,North,-9999.0,-,N/A,,Clear,0,2013-11-29 20:15:00
2:35 PM,56.7,29.1,35,30.44,10.0,Calm,Calm,-,N/A,,Clear,0,2013-11-29 20:35:00
2:55 PM,57.4,28.9,34,30.44,10.0,NW,4.6,-,N/A,,Clear,320,2013-11-29 20:55:00
3:15 PM,57.2,30.4,36,30.44,10.0,NNW,3.5,-,N/A,,Clear,340,2013-11-29 21:15:00
3:35 PM,57.4,30.9,37,30.44,10.0,Calm,Calm,-,N/A,,Clear,0,2013-11-29 21:35:00
3:55 PM,57.2,30.2,36,30.44,10.0,NNE,4.6,-,N/A,,Clear,30,2013-11-29 21:55:00
4:15 PM,56.5,30.0,36,30.43,10.0,NE,5.8,-,N/A,,Clear,40,2013-11-29 22:15:00
4:35 PM,55.6,31.5,40,30.43,10.0,NE,3.5,-,N/A,,Clear,40,2013-11-29 22:35:00
4:55 PM,54.3,32.0,43,30.42,10.0,North,-9999.0,-,N/A,,Clear,0,2013-11-29 22:55:00
5:15 PM,52.9,33.3,47,30.42,10.0,NNE,3.5,-,N/A,,Clear,30,2013-11-29 23:15:00
5:35 PM,51.8,34.0,51,30.43,10.0,Calm,Calm,-,N/A,,Clear,0,2013-11-29 23:35:00
5:55 PM,48.0,33.6,57,30.43,10.0,Calm,Calm,-,N/A,,Clear,0,2013-11-29 23:55:00
6:15 PM,46.9,35.1,63,30.43,10.0,Calm,Calm,-,N/A,,Clear,0,2013-11-30 00:15:00
6:35 PM,45.1,36.0,70,30.44,10.0,Calm,Calm,-,N/A,,Clear,0,2013-11-30 00:35:00
6:55 PM,44.6,35.6,71,30.44,10.0,Calm,Calm,-,N/A,,Clear,0,2013-11-30 00:55:00
7:15 PM,43.5,35.8,74,30.45,10.0,Calm,Calm,-,N/A,,Clear,0,2013-11-30 01:15:00
7:35 PM,43.0,35.6,75,30.45,10.0,Calm,Calm,-,N/A,,Clear,0,2013-11-30 01:35:00
7:55 PM,43.5,35.6,74,30.45,10.0,East,3.5,-,N/A,,Clear,90,2013-11-30 01:55:00
8:15 PM,43.7,34.7,71,30.45,10.0,East,3.5,-,N/A,,Clear,80,2013-11-30 02:15:00
8:35 PM,42.4,34.2,72,30.45,10.0,East,3.5,-,N/A,,Clear,100,2013-11-30 02:35:00
8:55 PM,41.9,34.2,74,30.44,10.0,Calm,Calm,-,N/A,,Clear,0,2013-11-30 02:55:00
9:15 PM,41.5,33.4,73,30.44,10.0,Calm,Calm,-,N/A,,Clear,0,2013-11-30 03:15:00
9:35 PM,41.5,32.5,70,30.44,10.0,Calm,Calm,-,N/A,,Clear,0,2013-11-30 03:35:00
9:55 PM,41.5,32.2,69,30.44,10.0,Calm,Calm,-,N/A,,Clear,0,2013-11-30 03:55:00
10:15 PM,41.7,32.0,68,30.44,10.0,Calm,Calm,-,N/A,,Clear,0,2013-11-30 04:15:00
10:35 PM,36.5,32.0,84,30.45,10.0,Calm,Calm,-,N/A,,Clear,0,2013-11-30 04:35:00
10:55 PM,37.8,32.7,82,30.44,10.0,Calm,Calm,-,N/A,,Clear,0,2013-11-30 04:55:00
11:15 PM,38.5,32.9,80,30.43,10.0,Calm,Calm,-,N/A,,Clear,0,2013-11-30 05:15:00
11:35 PM,37.4,32.7,83,30.42,10.0,ENE,3.5,-,N/A,,Clear,70,2013-11-30 05:35:00
11:55 PM,37.4,33.1,84,30.42,10.0,ENE,4.6,-,N/A,,Clear,70,2013-11-30 05:55:00